Hors Challenge

Huy For Trail - Huy (21.00 km)

dimanche 08 mars 2020

Vous pouvez trouver Le classement original sur : http://ultratiming.be  
 
HUY FOR TRAIL - HUY
DISTANCE : 20.88 km
dimanche 08 mars 2020
 
Place dos NOM Catégorie Pl/cat temps temps/km Vitesse
01:00:00              
1 1875 THIRY SAMUEL SEH 1 1:45:17 05:03 11.90
2 1157 HONNAY XAVIER SEH 2 1:50:08 05:16 11.38
3 1190 LEKEU FRED SEH 3 1:52:01 05:22 11.18
4 1128 GILLET DAVID V1H 1 1:56:18 05:34 10.77
5 1853 ROBERT YVES V2H 1 1:57:08 05:37 10.70
6 1099 DU BOIS PIERRE-YVES SEH 4 2:01:17 05:48 10.33
7 1115 FRANCOTTE SÉBASTIEN V1H 2 2:01:52 05:50 10.28
8 1160 HOUBION LUDOVIC V1H 3 2:01:52 05:50 10.28
9 1040 CELLIER NICOLAS SEH 5 2:02:18 05:51 10.24
10 1813 MEUNIER VINCENT SEH 6 2:02:39 05:52 10.22
11 1804 MAQUET JORDAN SEH 7 2:03:54 05:56 10.11
12 1805 MARCHAL LUDOVIC V1H 4 2:03:58 05:56 10.11
13 1167 JASPARD JÉRÔME V1H 5 2:03:59 05:56 10.11
14 1077 DELIRE ALAIN V2H 2 2:04:32 05:58 10.06
15 1198 LUCAS CHRISTOPHE V1H 6 2:05:39 06:01 9.97
16 1174 KLAUER JONATHAN SEH 8 2:05:58 06:02 9.95
17 1132 GOCHEL FREDERIC SEH 9 2:06:50 06:04 9.88
18 1866 SIRAULT RUDY V1H 7 2:07:37 06:07 9.82
19 1956 PIRARD COLIN SEH 10 2:07:43 06:07 9.81
20 1100 DUBOIS CEDRIC SEH 11 2:07:59 06:08 9.79
21 1109 FOLDESI DAVID V1H 8 2:08:08 06:08 9.78
22 1856 ROCOUR BERTRAND SEH 12 2:08:44 06:10 9.73
23 1106 FABRE MICHAËL V1H 9 2:08:53 06:10 9.72
24 1169 KEUTGEN GAUTHIER V1H 10 2:09:17 06:11 9.69
25 1152 HENRION SVEN SEH 13 2:09:33 06:12 9.67
26 1819 MORHET MASON SEH 14 2:10:22 06:15 9.61
27 1094 DEWIT RAYMOND V2H 3 2:12:07 06:20 9.48
28 1834 PIRON FRÉDÉRIC V2H 4 2:12:34 06:21 9.45
29 1823 NEMEGAIRE LAURENT V1H 11 2:12:34 06:21 9.45
30 1899 VIDALI MARZIO V1H 12 2:13:32 06:24 9.38
31 1941 VAN RENTERGHEM BENOITE SEF 1 2:13:43 06:24 9.37
32 1822 MOTTOUL VINCENT V1H 13 2:13:44 06:24 9.37
33 1937 RASKINET RENAUD V1H 14 2:13:45 06:24 9.37
34 1802 MALENGREAUX BENJAMIN SEH 15 2:14:55 06:28 9.29
35 1187 LEGROS FREDERIC V1H 15 2:15:23 06:29 9.25
36 1195 LONCAR FREDDY V1H 16 2:16:01 06:31 9.21
37 1155 HOET LAURIANNE SEF 2 2:16:04 06:31 9.21
38 1815 MICHEL OLIVIER V1H 17 2:16:05 06:31 9.21
39 1126 GIACCHETTA STÉPHANE V1H 18 2:16:49 06:33 9.16
40 1089 DESSY BENOIT SEH 16 2:18:04 06:37 9.07
41 1054 CORTEBEECK BRUNO SEH 17 2:18:50 06:39 9.02
42 1895 VERBESSELT KEVIN V1H 19 2:18:50 06:39 9.02
43 1843 RAMOS GARCIA GREGORY SEH 18 2:18:54 06:39 9.02
44 1114 FRAIPONT JEAN-MARC V1H 20 2:19:01 06:39 9.01
45 1006 BALTHASART OLIVIER SEH 19 2:19:07 06:40 9.01
46 1085 DENIS OLIVIER SEH 20 2:19:12 06:40 9.00
47 1127 GILLARD JEAN-MICHEL V1H 21 2:19:22 06:40 8.99
48 1860 ROQUET RAPHAEL V1H 22 2:19:25 06:41 8.99
49 1024 BOSCO ERIC V2H 5 2:20:16 06:43 8.93
50 1150 HEINE LAURENT V2H 6 2:20:45 06:44 8.90
51 1149 HEINE BENJAMIN ESPH 1 2:20:46 06:44 8.90
52 1939 TRUILLET DOMINIQUE V1H 23 2:21:09 06:46 8.88
53 1807 MARCHANDISE DAMIEN SEH 21 2:22:21 06:49 8.80
54 1061 DECLOUX GILLES V1H 24 2:22:22 06:49 8.80
55 1140 GRÉGOIRE CHRISTOPHE V1H 25 2:22:43 06:50 8.78
56 1966 GASPARD JIMMY SEH 22 2:22:56 06:51 8.77
57 1181 LAMBART CYPRIEN SEH 23 2:22:58 06:51 8.76
58 1090 DESSY SÉBASTIEN V1H 26 2:23:00 06:51 8.76
59 1144 GUILLAUME JEAN-MICHEL V1H 27 2:23:03 06:51 8.76
60 1091 DESSY VALERY V1H 28 2:23:03 06:51 8.76
61 1837 PONCELET STÉPHAN V2H 7 2:23:14 06:52 8.75
62 1888 VAN DER KAA VINCENT V2H 8 2:23:21 06:52 8.74
63 1046 CHAUVIN NICOLAS V1H 29 2:23:32 06:52 8.73
64 1096 DODEMONT THIBAUT SEH 24 2:23:45 06:53 8.72
65 1850 RESENTE LORENZO V1H 30 2:23:48 06:53 8.71
66 1873 THILION BENJAMIN SEH 25 2:23:53 06:53 8.71
67 1947 CENNÉ YVES V2H 9 2:23:55 06:54 8.71
68 1944 LEMAITRE PASCAL V1H 31 2:24:11 06:54 8.69
69 1909 WILMET BENOIT V2H 10 2:24:18 06:55 8.68
70 1125 GEROME GEOFFREY V1H 32 2:24:24 06:55 8.68
71 1179 LAHAUT STEVE SEH 26 2:24:35 06:55 8.67
72 1002 ADRIAENSSENS MARK V1H 33 2:24:42 06:56 8.66
73 1886 VANDENBOSCH MICHEL V1H 34 2:25:56 06:59 8.59
74 1892 VANHOOFF ROMAIN SEH 27 2:26:03 07:00 8.58
75 1862 ROUSSEAUX SAMUEL SEH 28 2:26:30 07:01 8.55
76 1809 MARX NICOLAS V1H 35 2:26:38 07:01 8.54
77 1136 GRAINDORGE FRÉDÉRIC V1H 36 2:26:39 07:01 8.54
78 1010 BAUMANS BENOIT V1H 37 2:26:43 07:02 8.54
79 1851 ROBERT BENJAMIN V1H 38 2:26:47 07:02 8.54
80 1970 CIMINO ARNANDO XXX   02:27:02 07:02 8.52
81 1861 RORIVE LAURENT V1H 39 2:27:06 07:03 8.52
82 1019 BIGARÉ GRÉGORY V1H 40 2:27:13 07:03 8.51
83 1072 DELBROUCK BENJAMIN SEH 29 2:27:15 07:03 8.51
84 1842 QUITTELIER JASON SEH 30 2:27:17 07:03 8.51
85 1053 CORNÉLIS PATRICE V2H 11 2:27:28 07:04 8.50
86 1855 ROCHUS ELÈNE SEF 3 2:27:49 07:05 8.48
87 1105 ETIENNE PHILIPPE SEH 31 2:28:07 07:06 8.46
88 1101 DUBOIS GEOFFREY V1H 41 2:29:00 07:08 8.41
89 1824 NICOLAS GILLES V2H 12 2:29:14 07:09 8.40
90 1183 LAMY DAVID V1H 42 2:29:14 07:09 8.40
91 1865 SEUTIN GILLES SEH 32 2:29:20 07:09 8.39
92 1095 DODEMONT FABIAN V1H 43 2:29:22 07:09 8.39
93 1073 DELBROUCK YANNICK V1H 44 2:29:39 07:10 8.37
94 1847 RENARD BENOIT V2H 13 2:29:53 07:11 8.36
95 1940 VAN HOOF EDDY V2H 14 2:30:45 07:13 8.31
96 1124 GERMAIN LUDOVIC SEH 33 2:31:41 07:16 8.26
97 1014 BENOIT GILLES SEH 34 2:32:42 07:19 8.20
98 1903 WEYKMANS SÉBASTIEN V1H 45 2:32:43 07:19 8.20
99 1055 CREVE ARNO SEH 35 2:32:55 07:19 8.19
100 1093 DEUSE MATHIEU SEH 36 2:32:56 07:19 8.19
101 1081 DELVENNE MARC V2H 15 2:33:05 07:20 8.18
102 1879 TORNABENE JONATHAN SEH 37 2:33:14 07:20 8.18
103 1110 FONTAINE CINDY SEF 4 2:33:15 07:20 8.18
104 1145 GYEN MICHAEL V1H 46 2:33:29 07:21 8.16
105 1116 FRISON JONATHAN SEH 38 2:33:29 07:21 8.16
106 1088 DESIROTTE GILLES V1H 47 2:33:31 07:21 8.16
107 1118 GARIBALDI ANGELO V2H 16 2:33:43 07:22 8.15
108 1182 LAMBERT GUY V2H 17 2:33:44 07:22 8.15
109 1102 DUCHATEAU CHRISTIAN SEH 39 2:33:48 07:22 8.15
110 1918 VAN HOVE MICKEL XXX   2:33:49 07:22 8.15
111 1188 LEGROS PASCAL V2H 18 2:33:52 07:22 8.14
112 1004 ANSSEAU ADRIEN SEH 40 2:33:58 07:22 8.14
113 1042 CHAMPON JEFF V1H 48 2:34:08 07:23 8.13
114 1009 BARON NICOLAS SEH 41 2:34:59 07:25 8.08
115 1162 HOUPRESSE ANDRÉ SEH 42 2:35:06 07:26 8.08
116 1016 FABRICE BERTRAND XXX   2:35:27 07:27 8.06
117 1068 DEJARDIN OLIVIER V2H 19 2:35:43 07:27 8.05
118 1049 COLLARD PASCAL V2H 20 2:36:07 07:29 8.03
119 1112 FOSSOUL RAPHAËL SEH 43 2:36:30 07:30 8.01
120 1173 KINET OLIVIER V1H 49 2:36:37 07:30 8.00
121 1011 BEAUJEAN OLIVIER V1H 50 2:36:40 07:30 8.00
122 1062 DEFFET BENOIT V1H 51 2:36:44 07:30 7.99
123 1147 HAULOTTE OLIVIER V1H 52 2:36:51 07:31 7.99
124 1139 GRAULUS TOM SEH 44 2:37:19 07:32 7.96
125 1946 JACOBS FABIEN SEH 45 2:39:11 07:37 7.87
126 1030 BRÈNE YVES V1H 53 2:39:29 07:38 7.86
127 1812 MESTREZ CHARLES V2H 21 2:40:00 07:40 7.83
128 1023 BORTOLOTTI EMMANUEL V1H 54 2:40:11 07:40 7.82
129 1904 WEYRICH PIERRE V1H 55 2:40:13 07:40 7.82
130 1191 LELOUX LAURENT V1H 56 2:40:26 07:41 7.81
131 1067 DEJARDIN CHRISTELLE V1F 1 2:40:31 07:41 7.81
132 1060 DEBOUNY FABIAN V1H 57 2:41:09 07:43 7.77
133 1083 DEMOULIN JEAN-MICHEL V1H 58 2:41:58 07:45 7.74
134 1189 LEJEUNE DELPHINE V1F 2 2:41:59 07:45 7.73
135 1801 MAGNETTE CHRISTOPHE V1H 59 2:42:11 07:46 7.73
136 1829 PARISSE CHRISTIAN V2H 22 2:42:51 07:48 7.69
137 1877 THOMAS OLIVIER V1H 60 2:43:17 07:49 7.67
138 1891 VANHALLE STÉPHANE SEH 46 2:43:42 07:50 7.65
139 1107 FANIELLE OLIVIER SEH 47 2:43:47 07:51 7.65
140 1910 WIONMONT WILLIAM SEH 48 2:44:00 07:51 7.64
141 1972 CHARLES RENAUD SEH 49 2:44:00 07:51 7.64
142 1883 VAN HESPEN BENOIT V2H 23 2:44:21 07:52 7.62
143 1912 YANS FABRICE V1H 61 2:44:33 07:53 7.61
144 1942 NYSSEN FABIENNE XXX   2:44:42 07:53 7.61
145 1197 LOUSBERG CARINE V2F 1 2:44:42 07:53 7.61
146 1876 THOMAS JÉRÔME SEH 50 2:44:48 07:54 7.60
147 1052 COP SEBASTIEN SEH 51 2:44:49 07:54 7.60
148 1177 LA PANTHÈRE VERTE SEH 52 2:44:50 07:54 7.60
149 1901 VORIMORE MARIE SEF 5 2:44:51 07:54 7.60
150 1818 MONVILLE BERNARD V2H 24 2:45:24 07:55 7.57
151 1168 KEMPENEERS LÉOPOLD V1H 62 2:46:10 07:57 7.54
152 1911 WOIT JEAN-CHRISTOPHE V1H 63 2:46:59 08:00 7.50
153 1005 AYDOGDU ALAADDIN V3H 1 2:47:07 08:00 7.50
154 1063 DEFRENE CHRISTIAN V2H 25 2:47:07 08:00 7.50
155 1185 MACHIELS PIERRE V1H 64 2:47:09 08:00 7.50
156 1969 WOJCIK VINCENT SEH 53 2:47:13 08:00 7.49
157 1955 CAMBRESIER TOM SEH 54 2:47:28 08:01 7.48
158 1964 FOX SOPHIE V1F 3 2:47:38 08:02 7.47
159 1156 HOGENBOOM STÉPHANE V1H 65 2:47:39 08:02 7.47
160 1035 BURTON NATHALIE V2F 2 2:47:42 08:02 7.47
161 1161 HOUBION MICHAËL V1H 66 2:47:44 08:02 7.47
162 1907 WILLIAUME WILLIAM V1H 67 2:47:54 08:02 7.46
163 1852 ROBERT DOROTHY V1F 4 2:48:09 08:03 7.45
164 1194 LHOEST NICOLAS SEH 55 2:48:16 08:03 7.45
165 1165 ISTAS ROMAIN SEH 56 2:48:19 08:04 7.44
166 1814 MICHAUX CHRISTIAN V4H 1 2:48:20 08:04 7.44
167 1900 VILAINE LAURENCE V2F 3 2:48:22 08:04 7.44
168 1831 PETIT PETIT V1H 68 2:48:24 08:04 7.44
169 1817 MOMMENS GUY V2H 26 2:48:50 08:05 7.42
170 1122 GERARD CHRISTOPHE SEH 57 2:48:51 08:05 7.42
171 1948 VANDERMOLEN JULIEN SEH 58 2:49:16 08:06 7.40
172 1129 GILSOUL GRÉGORY SEH 59 2:49:16 08:06 7.40
173 1029 BRAINE STÉPHANIE SEF 6 2:49:39 08:07 7.39
174 1893 VELZ BENJAMIN SEH 60 2:49:40 08:08 7.38
175 1867 SOLLIERE CHRISTOPHE V1H 69 2:49:40 08:08 7.38
176 1123 GÉRARD MARTINE V2F 4 2:50:16 08:09 7.36
177 1200 LUXEN REMI V2H 27 2:50:17 08:09 7.36
178 1968 ORTENZ EMANNO 2 1 2:50:22 08:10 7.35
179 1967 CORNES JAMES V2H 28 2:50:24 08:10 7.35
180 1137 GRAINDORGE JOHANN SEH 61 2:50:59 08:11 7.33
181 1119 GATHOT KEVIN SEH 62 2:50:59 08:11 7.33
182 1870 SUAREZ-FERNANDEZ CATHY V2F 5 2:51:00 08:11 7.33
183 1826 OGER PIERRE V2H 29 2:51:56 08:14 7.29
184 1038 CARPANTIER JEAN-JACQUES V3H 2 2:52:01 08:14 7.28
185 1949 BERTRAND ADRIEN SEH 63 2:52:05 08:14 7.28
186 1057 DAINE FABIENNE V1F 5 2:52:41 08:16 7.26
187 1898 VERPOORTEN ROGER V4H 2 2:53:06 08:17 7.24
188 1037 CAMELI CÉDRIC V1H 70 2:53:47 08:19 7.21
189 1908 WILMART GEOFFREY V1H 71 2:54:08 08:20 7.19
190 1914 ZUCCARINI ENZO SEH 64 2:54:33 08:22 7.18
191 1121 GEORIS PASCAL V1H 72 2:54:37 08:22 7.17
192 1172 KINET GARY SEH 65 2:54:39 08:22 7.17
193 1138 GRAINDORGE JOHAN V1H 73 2:54:39 08:22 7.17
194 1878 TIXHON JÉRÉMIE SEH 66 2:54:41 08:22 7.17
195 1192 LEPAGE GREGORY V1H 74 2:54:41 08:22 7.17
196 1134 GONTHIER LOUIS ESPH 2 2:56:11 08:26 7.11
197 1832 PIERET JÉROME V1H 75 2:57:19 08:30 7.07
198 1849 RENIER PASCAL V2H 30 2:57:56 08:31 7.04
199 1889 VANDEVELD MANUEL V1H 76 2:58:14 08:32 7.03
200 1854 ROBERTI DE WINGHE MAX V3H 3 2:58:37 08:33 7.01
201 1142 GREVISSE DAVID V1H 77 2:58:37 08:33 7.01
202 1871 TEMMERMAN NATHALIE V1F 6 2:58:49 08:34 7.01
203 1001 ACHARD JULIE SEF 7 2:58:53 08:34 7.00
204 1952 HERMAN YANNICK V1H 78 2:59:50 08:37 6.97
205 1841 QUINTIN JEAN-JACQUES V2H 31 3:00:30 08:39 6.94
206 1965 CONNIGS FABRICE V3H 4 3:00:36 08:39 6.94
207 1957 JADOUL MATHILDE SEF 8 3:00:48 08:40 6.93
208 1184 LE GAC FREDERIC SEH 67 3:00:55 08:40 6.93
209 1896 VERJANS SARAH SEF 9 3:00:57 08:40 6.92
210 1825 NINANE ANNE-FRAN V1F 7 3:00:58 08:40 6.92
211 1092 DETHIER CELIA SEF 10 3:01:01 08:40 6.92
212 1880 VAN DE VYVER LAURENT V1H 79 3:01:02 08:40 6.92
213 1031 BRESART DZVID SEH 68 3:01:14 08:41 6.91
214 1164 INFANTINO GEORGIA V1F 8 3:01:29 08:41 6.90
215 1008 BARÉ THIERRY V2H 32 3:01:30 08:42 6.90
216 1048 CLÉMENT LAURENCE V1F 9 3:01:47 08:42 6.89
217 1961 HAUZEUR DOMINIQUE XXX   03:02:08 08:43 6.88
218 1884 VANBLAERE EDOUARD ESPH 3 3:02:12 08:44 6.88
219 1034 BURNAY DAVID SEH 69 3:02:32 08:44 6.86
220 1086 DEPREZ HERVÉ V2H 33 3:04:16 08:49 6.80
221 1897 VERPOORTE ALAIN V2H 34 3:04:19 08:50 6.80
222 1153 HENROTAY FREDERIC V1H 80 3:04:22 08:50 6.80
223 1953 HUMBLET PATRICK V2H 35 3:04:28 08:50 6.79
224 1025 BOSSELOIR ANNICK V2F 6 3:04:28 08:50 6.79
225 1887 VANDENSAVEL MANON SEF 11 3:04:39 08:51 6.79
226 1154 HERION CECILE V1F 10 3:04:51 08:51 6.78
227 1902 WATHELET VANESSA V1F 11 3:04:55 08:51 6.78
228 1868 SOUCHET NATHALIE V2F 7 3:05:14 08:52 6.76
229 1975 NKUBITO WILLY V1H 81 3:05:51 08:54 6.74
230 1915 ZWAENEPOEL MICHEL V2H 36 3:07:17 08:58 6.69
231 1117 GANASSIN LUCIA V2F 8 3:07:18 08:58 6.69
232 1075 DELCOMMUNE LEA JUF 1 3:08:10 09:01 6.66
233 1074 DELCOMMUNE KARL V2H 37 3:08:12 09:01 6.66
234 1007 BARBÉ DELPHINE SEF 12 3:09:45 09:05 6.60
235 1919 HOUTHOOFDT NATHALIE XXX   3:09:49 09:05 6.60
236 1180 LAKAYE MÉLANIE V1F 12 3:10:26 09:07 6.58
237 1022 BONA GUY V4H 3 3:10:31 09:07 6.58
238 1835 PIROTTE ARMAND V3H 5 3:10:31 09:07 6.58
239 1857 RODY ANTONY SEH 70 3:10:34 09:08 6.57
240 1146 HALLEUX THIBAUT V2H 38 3:11:00 09:09 6.56
241 1018 BIDAINE LUC V3H 6 3:11:15 09:10 6.55
242 1178 LACKNER SANDRINE V1F 13 3:11:18 09:10 6.55
243 1027 BRACKE CHARLES V1H 82 3:11:18 09:10 6.55
244 1869 STIENSMA ERIC V3H 7 3:11:18 09:10 6.55
245 1120 GEETS BERTRAND V2H 39 3:11:31 09:10 6.54
246 1803 MALHERBE GAUDRIC SEH 71 3:12:09 09:12 6.52
247 1811 MATHONET VERO V2F 9 3:12:38 09:14 6.50
248 1104 DURELLO VALÉRIE V1F 14 3:12:38 09:14 6.50
249 1133 GODFRAIN CHRISTIAN V2H 40 3:12:42 09:14 6.50
250 1827 PAELINCK CHRISTOPHE V2H 41 3:13:50 09:17 6.46
251 1013 BELLENS MARIANNE V1F 15 3:13:52 09:17 6.46
252 1012 BELAIRE MICHAEL SEH 72 3:13:56 09:17 6.46
253 1064 DEGLER GERALDINE V1F 16 3:13:58 09:17 6.46
254 1838 PUTZEYS DOMINIQUE V1H 83 3:13:58 09:17 6.46
255 1045 CHARLOTIAUX ANNE V1F 17 3:14:03 09:18 6.46
256 1069 DEL GIUDICE ANGELA V1F 18 3:14:03 09:18 6.46
257 1808 MARECHAL PIERRE V1H 84 3:14:04 09:18 6.46
258 1071 DELANTE CHLOE V1F 19 3:14:04 09:18 6.46
259 1830 PEPIN JEAN V2H 42 3:14:09 09:18 6.45
260 1065 DEGOTTE BENOÎT V2H 43 3:14:10 09:18 6.45
261 1885 VANBLAERE FREDERIC V2H 44 3:14:40 09:19 6.44
262 1097 DONCKELS NATHALIE V1F 20 3:14:46 09:20 6.43
263 1050 COLLIN JERRY SEH 73 3:14:51 09:20 6.43
264 1882 VAN EYCKEN CÉDRIC SEH 74 3:14:56 09:20 6.43
265 1863 SADLER DORIAN ESPH 4 3:17:36 09:28 6.34
266 1848 RENARD LEOPOLD V2H 45 3:19:13 09:32 6.29
267 1051 COLLIN STEVE SEH 75 3:19:13 09:32 6.29
268 1820 MOTTE EMELINE SEF 13 3:20:39 09:37 6.24
269 1810 MATAGNE MAXIME SEH 76 3:20:44 09:37 6.24
270 1844 RAPPE CAROLINE SEF 14 3:20:51 09:37 6.24
271 1890 VANESSE JEAN DENIS V2H 46 3:20:53 09:37 6.24
272 1840 QUIMPIER PASCAL V1H 85 3:21:43 09:40 6.21
273 1059 DE KAESTEKER DOMINIQUE V2H 47 3:26:06 09:52 6.08
274 1044 CHARLIER SEBASTIEN V1H 86 3:29:39 10:02 5.98
275 1196 LONGREE DELPHINE SEF 15 3:29:56 10:03 5.97
276 1111 FONTAINE LUCIE SEF 16 3:29:57 10:03 5.97
277 1098 DOSSIN CECILE V1F 21 3:35:46 10:20 5.81
278 1806 MARCHAND KATHY V1F 22 3:35:47 10:20 5.81
279 1874 THIRY FABIENNE V2F 10 3:35:47 10:20 5.81
280 1833 PIPARO AUDREY SEF 17 3:37:06 10:24 5.77
281 1130 GOBERT AMANDINE SEF 18 4:01:35 11:34 5.19
282 1131 GOBERT DOMINIQUE V2H 48 4:01:37 11:34 5.19
283 1859 ROME PATRICK V2H 49 4:09:40 11:57 5.02
284 1175 KUCKAERTZ NANCY V2F 11 4:09:45 11:58 5.02
285 1135 GOUVERNEUR PATRICE V2H 50 4:10:05 11:59 5.01
286 1846 REIP OLIVIER V1H 87 4:10:06 11:59 5.01
287 1171 KEYEN ROHNNY V2H 51 4:10:08 11:59 5.01
288 1170 KEYEN PIETER SEH 77 4:10:09 11:59 5.01